Preview of NWS' New Version of Forecast
This preview is not operational and should not be used for support decisions.

Regional Weather Roundup (RWR)

Issued by National Weather Service (NWS)

                            
000
ASUS44 KMEG 181910
RWRTN 
TENNESSEE HOURLY STATE WEATHER ROUNDUP
NATIONAL WEATHER SERVICE MEMPHIS TN
200 PM CDT THU APR 18 2019

TNZ002-004-019-021-049-052-054-088>092-182000-
WEST TENNESSEE
  
CITY           SKY/WX    TMP DP  RH WIND       PRES   REMARKS
MEMPHIS INTL   CLOUDY    67  64  90 S9        29.71F                  
NWS MEMPHIS      N/A     66 N/A N/A MISG        N/A                   
JACKSON        CLOUDY    67  63  87 S10       29.72F                  
DYERSBURG      LGT RAIN  65  63  93 S3        29.71F                  
SOMERVILLE     MOSUNNY   66  64  94 SW7       29.73S                  
COVINGTON      PTSUNNY   66  63  88 S7        29.71S                  
UNION CITY     SUNNY     64  64 100 S6        29.68F                  
BOLIVAR        PTSUNNY   68  64  88 SW8       29.72F                  
PARIS          CLOUDY    64  63  94 S9        29.70F FOG              
HUNTINGDON     CLOUDY    66  64  94 S8G15     29.70F                  
LEXINGTON      CLOUDY    72  61  68 S9G17     29.70F                  
SELMER         PTSUNNY   73  61  64 VRB7G16   29.71F                  
SAVANNAH       PTSUNNY   73  63  68 S10G16    29.71F                  
$$

TNZ008-025-027-028-033-062-065-066-182000-
NORTH MIDDLE TENNESSEE
  
CITY           SKY/WX    TMP DP  RH WIND       PRES   REMARKS
NASHVILLE      CLOUDY    77  56  48 S23G29    29.74F                  
DICKSON        CLOUDY    72  59  64 S12       29.71F                  
CLARKSVILLE    CLOUDY    71  58  63 S13       29.71F                  
LEBANON        CLEAR     77  55  47 S17G31    29.73F                  
SMYRNA         FAIR      77  60  55 S17G26    29.75F                  
MURFREESBORO   PTCLDY    77  57  50 S17G25    29.74F                  
COOKEVILLE     SUNNY     79  54  41 S15G24    29.79F                  
LIVINGSTON     CLEAR     77  52  41 S12G21    29.79F                  
GALLATIN       CLEAR     77  55  47 S16G25    29.76F                  
CROSSVILLE     FAIR      72  53  51 S10G22    29.86F                  
ROCKWOOD       PTCLDY    75  50  41 SW17G29   29.87F                  
$$

TNZ061-075-076-078-094-096-097-182000-
SOUTH MIDDLE TENNESSEE
  
CITY           SKY/WX    TMP DP  RH WIND       PRES   REMARKS
LAWRENCEBURG   MOCLDY    75  59  57 S10G23    29.75F                  
LEWISBURG      CLEAR     77  59  53 S17       29.75F                  
FAYETTEVILLE   MOSUNNY   77  57  50 S22G30    29.78F                  
TULLAHOMA      MOSUNNY   73  55  53 S15G28    29.79F                  
WINCHESTER     MOSUNNY   73  55  53 S16G25    29.81F                  
MCMINNVILLE    SUNNY     77  57  50 S8G20     29.80F                  
COLUMBIA       PTSUNNY   75  61  60 S13G22    29.72F                  
SHELBYVILLE    SUNNY     75  57  53 S20G26    29.76F                  
$$

TNZ017-018-042-046-047-182000-
NORTHEAST TENNESSEE
  
CITY           SKY/WX    TMP DP  RH WIND       PRES   REMARKS
TRI CITIES     FAIR      83  40  21 SW21G30   29.85F                  
ELIZABETHTON   FAIR      82  46  28 SW14G22   29.86F                  
GREENEVILLE    CLEAR     79  50  36 VRB5G17   29.85F                  
$$

TNZ012-013-036-069-073-074-182000-
CENTRAL EAST TENNESSEE
  
CITY           SKY/WX    TMP DP  RH WIND       PRES   REMARKS
KNOXVILLE      PTSUNNY   80  54  40 SW22G28   29.84F                  
OAK RIDGE      FAIR      79  51  37 SW12G25   29.86F                  
DOWNTOWN KNOXV SUNNY     81  55  41 SW13G22   29.84F                  
GATLINBURG     PTSUNNY   84  50  30 SW9G23    29.82F                  
MORRISTOWN     SUNNY     82  52  34 SW12G20   29.83F                  
JACKSBORO      MOSUNNY   79  54  41 S24G31    29.86F                  
$$

TNZ083-085-099-182000-
SOUTHEAST TENNESSEE
  
CITY           SKY/WX    TMP DP  RH WIND       PRES   REMARKS
CHATTANOOGA    PTSUNNY   77  53  43 S12G20    29.85F                  
DAYTON         PTCLDY    75  55  50 S13G18    29.85F                  
$$

SKY/WX REPORTED AS FAIR MEANS FEW OR NO CLOUDS BELOW
12 THOUSAND FEET.